Location: *
(2.7500°S, 66.6833°W)
Time: 23:10:32
(UTC+00:00)

Cosmos 921 Rocket - Pass Details

Date: 24 May 2024
Orbit: 568 x 626 km, 75.8° (Epoch: 13 June)

Event Time Altitude Azimuth Distance (km) Brightness Sun altitude
Rises 23:48:24 0° 189° (S) 2,853 6.3 -20.7°
Reaches altitude 10° 23:50:37 10° 188° (S) 1,957 5.5 -21.2°
Maximum altitude 23:54:59 83° 102° (ESE) 622 2.9 -22.3°
Drops below altitude 10° 23:59:24 10° 13° (NNE) 1,975 5.7 -23.3°
Sets 00:01:39 0° 12° (NNE) 2,883 6.6 -23.8°
